WXM80 ListenWXM80 Stop

You find our weather info also at:

UK Metoffice

WeatherCloud

Weather Underground

Northeastern Weather Network

AWEKAS

Citizen Weather Observer Program (CWOP)

HAMweather, WeatherForYou, PWS Weather


Weather Underground History page Text

Daily Summary for February 22, 2018 Units:  English    Metric   Both
« Previous Day
Next Day »
Daily Weekly Monthly Yearly Custom
  High: Low: Average:
Temperature: 53.1 °F 35.8 °F 41.7 °F
Dew Point: 43.3 °F 34.0 °F 38 °F
Humidity: 95 % 66 % 87 %
Wind Speed: 8.0 mph 0.0 mph 4.2 mph
Wind Gust: 12.7 mph - -
Wind:- - East
Pressure: 30.43 in 30.15 in -
Precipitation: 0.02 in    
Historical Graphs
 
 
Tabular Data for February 22, 2018
Time Temperature Dew Point Pressure Wind Wind Speed Wind Gust Humidity Rainfall Rate (Hourly)
00:04 52.4 °F 43.3 °F 30.15 in NNE 6.8 mph 10.4 mph 71 % 0.00 in
00:09 52.7 °F 43.2 °F 30.15 in North 7.2 mph 9.2 mph 70 % 0.00 in
00:14 52.8 °F 43.3 °F 30.15 in North 6.8 mph 10.4 mph 70 % 0.00 in
00:19 52.9 °F 42.6 °F 30.16 in NNE 7.3 mph 10.0 mph 68 % 0.00 in
00:25 53.0 °F 42.3 °F 30.16 in NNW 6.6 mph 9.2 mph 67 % 0.00 in
00:30 53.1 °F 42.0 °F 30.16 in North 5.8 mph 9.2 mph 66 % 0.00 in
00:35 53.1 °F 42.4 °F 30.16 in North 5.6 mph 10.4 mph 67 % 0.00 in
00:40 53.0 °F 42.3 °F 30.17 in NNE 5.8 mph 8.1 mph 67 % 0.00 in
00:45 53.0 °F 42.7 °F 30.16 in North 5.8 mph 9.2 mph 68 % 0.00 in
00:50 52.7 °F 42.4 °F 30.17 in NE 6.3 mph 11.5 mph 68 % 0.00 in
00:55 52.4 °F 42.1 °F 30.18 in North 6.8 mph 9.2 mph 68 % 0.00 in
01:00 51.9 °F 41.7 °F 30.18 in North 4.7 mph 8.1 mph 68 % 0.00 in
01:05 51.4 °F 41.6 °F 30.18 in NNE 4.9 mph 8.1 mph 69 % 0.00 in
01:10 51.0 °F 41.6 °F 30.18 in NNE 5.6 mph 8.1 mph 70 % 0.00 in
01:15 50.9 °F 41.8 °F 30.18 in North 5.7 mph 8.1 mph 71 % 0.00 in
01:20 50.8 °F 41.7 °F 30.18 in NNW 5.5 mph 9.2 mph 71 % 0.00 in
01:25 50.9 °F 42.2 °F 30.19 in North 4.1 mph 5.8 mph 72 % 0.00 in
01:30 50.8 °F 42.1 °F 30.19 in North 6.5 mph 12.0 mph 72 % 0.00 in
01:35 50.6 °F 41.9 °F 30.19 in NNW 5.5 mph 8.1 mph 72 % 0.00 in
01:40 50.5 °F 41.8 °F 30.20 in NW 5.9 mph 8.0 mph 72 % 0.00 in
01:45 50.3 °F 41.6 °F 30.20 in North 5.3 mph 11.5 mph 72 % 0.00 in
01:50 50.0 °F 41.7 °F 30.20 in NW 6.9 mph 11.5 mph 73 % 0.00 in
01:55 49.8 °F 41.8 °F 30.20 in NNW 6.7 mph 12.7 mph 74 % 0.00 in
02:00 49.6 °F 41.7 °F 30.20 in NNW 4.5 mph 9.2 mph 74 % 0.00 in
02:05 49.5 °F 41.9 °F 30.20 in NNW 4.7 mph 9.2 mph 75 % 0.00 in
02:10 49.4 °F 42.1 °F 30.20 in NNW 4.1 mph 9.2 mph 76 % 0.00 in
02:15 49.2 °F 42.0 °F 30.20 in North 6.6 mph 6.9 mph 76 % 0.00 in
02:20 49.0 °F 41.8 °F 30.20 in North 4.9 mph 11.5 mph 76 % 0.00 in
02:25 48.8 °F 41.9 °F 30.21 in NNW 3.0 mph 10.0 mph 77 % 0.00 in
02:30 48.6 °F 41.7 °F 30.22 in NNW 4.5 mph 10.0 mph 77 % 0.00 in
02:36 48.4 °F 41.5 °F 30.22 in NNW 5.0 mph 10.0 mph 77 % 0.00 in
02:40 48.1 °F 41.2 °F 30.22 in NNW 5.0 mph 8.0 mph 77 % 0.00 in
02:45 47.8 °F 41.3 °F 30.22 in NNW 3.0 mph 8.0 mph 78 % 0.00 in
02:51 47.6 °F 41.1 °F 30.22 in NNW 2.0 mph 5.0 mph 78 % 0.00 in
02:55 47.4 °F 41.2 °F 30.23 in North 5.0 mph 8.0 mph 79 % 0.00 in
03:01 47.1 °F 40.9 °F 30.23 in NW 5.0 mph 7.0 mph 79 % 0.00 in
03:06 46.9 °F 41.1 °F 30.23 in North 4.8 mph 6.9 mph 80 % 0.00 in
03:11 46.8 °F 41.0 °F 30.23 in North 3.0 mph 8.0 mph 80 % 0.00 in
03:16 46.7 °F 41.2 °F 30.23 in NNE 3.6 mph 5.0 mph 81 % 0.00 in
03:21 46.7 °F 41.2 °F 30.24 in North 5.1 mph 5.8 mph 81 % 0.00 in
03:26 46.6 °F 41.1 °F 30.25 in North 4.5 mph 9.2 mph 81 % 0.00 in
03:31 46.6 °F 40.8 °F 30.24 in North 3.0 mph 4.6 mph 80 % 0.00 in
03:36 46.5 °F 40.3 °F 30.24 in NNE 5.6 mph 9.2 mph 79 % 0.00 in
03:41 46.4 °F 39.9 °F 30.24 in North 6.5 mph 8.1 mph 78 % 0.00 in
03:46 46.4 °F 39.9 °F 30.25 in NNE 5.8 mph 10.4 mph 78 % 0.00 in
03:51 46.4 °F 39.6 °F 30.25 in NNE 6.9 mph 9.2 mph 77 % 0.00 in
03:56 46.3 °F 39.5 °F 30.25 in North 7.7 mph 11.5 mph 77 % 0.00 in
04:02 46.2 °F 39.1 °F 30.26 in NE 3.0 mph 8.1 mph 76 % 0.00 in
04:07 46.1 °F 39.0 °F 30.26 in North 6.5 mph 9.2 mph 76 % 0.00 in
04:12 46.0 °F 38.5 °F 30.26 in NNE 4.9 mph 9.2 mph 75 % 0.00 in
04:17 45.8 °F 38.3 °F 30.27 in NE 6.9 mph 10.4 mph 75 % 0.00 in
04:22 45.8 °F 38.3 °F 30.27 in NNE 6.6 mph 11.5 mph 75 % 0.00 in
04:27 45.8 °F 38.3 °F 30.27 in North 5.9 mph 11.5 mph 75 % 0.00 in
04:32 45.7 °F 38.2 °F 30.26 in North 7.1 mph 9.2 mph 75 % 0.00 in
04:37 45.6 °F 38.1 °F 30.26 in NNE 6.2 mph 11.5 mph 75 % 0.00 in
04:42 45.5 °F 38.0 °F 30.27 in NNW 4.2 mph 6.9 mph 75 % 0.00 in
04:47 45.5 °F 38.0 °F 30.27 in NNE 3.0 mph 6.0 mph 75 % 0.00 in
04:52 45.4 °F 37.9 °F 30.27 in NNE 4.7 mph 6.9 mph 75 % 0.00 in
04:57 45.4 °F 38.3 °F 30.27 in NNW 3.3 mph 5.0 mph 76 % 0.00 in
05:03 45.3 °F 38.2 °F 30.29 in North 3.0 mph 4.6 mph 76 % 0.00 in
05:08 45.2 °F 38.1 °F 30.29 in NW 2.2 mph 3.5 mph 76 % 0.00 in
05:13 45.1 °F 38.0 °F 30.30 in NW 1.6 mph 3.5 mph 76 % 0.00 in
05:18 45.1 °F 38.0 °F 30.29 in NNE 1.8 mph 3.5 mph 76 % 0.00 in
05:23 45.0 °F 37.9 °F 30.30 in North 1.1 mph 3.5 mph 76 % 0.00 in
05:28 44.9 °F 37.8 °F 30.30 in NNE 1.9 mph 3.5 mph 76 % 0.00 in
05:33 44.9 °F 38.1 °F 30.30 in North 3.0 mph 3.5 mph 77 % 0.00 in
05:38 44.8 °F 38.0 °F 30.31 in North 2.6 mph 7.0 mph 77 % 0.00 in
05:43 44.7 °F 38.6 °F 30.31 in NNE 3.9 mph 9.2 mph 79 % 0.00 in
05:48 44.6 °F 38.8 °F 30.31 in NNW 2.7 mph 5.8 mph 80 % 0.00 in
05:53 44.5 °F 39.0 °F 30.31 in North 4.7 mph 5.8 mph 81 % 0.00 in
05:58 44.3 °F 39.2 °F 30.30 in NNE 2.9 mph 8.1 mph 82 % 0.00 in
06:03 44.2 °F 39.4 °F 30.30 in NE 2.2 mph 4.6 mph 83 % 0.00 in
06:08 44.1 °F 39.3 °F 30.30 in NNE 1.0 mph 4.0 mph 83 % 0.00 in
06:13 44.0 °F 39.5 °F 30.30 in ENE 2.2 mph 3.5 mph 84 % 0.00 in
06:18 43.9 °F 39.4 °F 30.30 in ENE 1.6 mph 4.0 mph 84 % 0.00 in
06:23 43.7 °F 39.2 °F 30.29 in ENE 2.5 mph 4.6 mph 84 % 0.00 in
06:28 43.5 °F 39.3 °F 30.29 in ENE 2.0 mph 3.5 mph 85 % 0.00 in
06:33 43.4 °F 39.2 °F 30.30 in NNE 1.7 mph 3.5 mph 85 % 0.00 in
06:38 43.3 °F 39.1 °F 30.30 in NE 0.7 mph 3.5 mph 85 % 0.00 in
06:43 43.2 °F 39.3 °F 30.29 in NE 1.4 mph 3.5 mph 86 % 0.00 in
06:49 43.1 °F 39.2 °F 30.30 in ENE 1.9 mph 6.9 mph 86 % 0.00 in
06:54 43.0 °F 39.1 °F 30.29 in ENE 2.7 mph 3.5 mph 86 % 0.00 in
06:59 43.0 °F 39.4 °F 30.28 in East 3.2 mph 5.0 mph 87 % 0.00 in
07:04 42.9 °F 39.3 °F 30.29 in ENE 2.5 mph 4.6 mph 87 % 0.00 in
07:09 42.9 °F 39.6 °F 30.31 in ENE 2.4 mph 3.5 mph 88 % 0.00 in
07:14 42.9 °F 39.6 °F 30.31 in NE 1.6 mph 3.5 mph 88 % 0.00 in
07:19 42.8 °F 39.5 °F 30.31 in ENE 1.5 mph 3.5 mph 88 % 0.00 in
07:24 42.8 °F 39.5 °F 30.31 in ENE 1.9 mph 3.5 mph 88 % 0.00 in
07:29 42.8 °F 39.5 °F 30.30 in ENE 3.3 mph 4.6 mph 88 % 0.00 in
07:34 42.7 °F 39.4 °F 30.30 in ENE 1.9 mph 3.5 mph 88 % 0.00 in
07:39 42.7 °F 39.4 °F 30.31 in NE 2.0 mph 3.5 mph 88 % 0.00 in
07:44 42.6 °F 39.6 °F 30.31 in NE 1.4 mph 2.3 mph 89 % 0.00 in
07:49 42.5 °F 39.5 °F 30.31 in ENE 0.6 mph 2.3 mph 89 % 0.00 in
07:54 42.5 °F 39.5 °F 30.31 in ENE 1.0 mph 3.5 mph 89 % 0.00 in
07:59 42.5 °F 39.5 °F 30.31 in ENE 0.8 mph 3.5 mph 89 % 0.00 in
08:05 42.4 °F 39.4 °F 30.31 in NNE 1.2 mph 4.6 mph 89 % 0.00 in
08:10 42.4 °F 39.4 °F 30.31 in NE 3.0 mph 3.5 mph 89 % 0.00 in
08:15 42.3 °F 39.3 °F 30.31 in ENE 1.5 mph 4.0 mph 89 % 0.00 in
08:20 42.2 °F 39.5 °F 30.33 in ENE 0.7 mph 2.3 mph 90 % 0.00 in
08:25 42.2 °F 39.5 °F 30.34 in Calm     90 % 0.00 in
08:30 42.2 °F 39.5 °F 30.33 in NE 1.4 mph 3.5 mph 90 % 0.00 in
08:35 42.1 °F 39.7 °F 30.34 in Calm     91 % 0.00 in
08:40 42.1 °F 39.7 °F 30.33 in ENE 2.0 mph 3.5 mph 91 % 0.00 in
08:45 42.1 °F 39.7 °F 30.33 in ENE 1.1 mph 2.3 mph 91 % 0.00 in
08:50 42.1 °F 39.9 °F 30.33 in ENE 2.6 mph 4.6 mph 92 % 0.00 in
08:55 42.1 °F 39.9 °F 30.33 in ENE 2.6 mph 4.0 mph 92 % 0.00 in
09:00 42.0 °F 39.8 °F 30.33 in ENE 2.5 mph 4.0 mph 92 % 0.00 in
09:05 42.0 °F 39.8 °F 30.33 in ENE 2.8 mph 3.5 mph 92 % 0.00 in
09:10 41.9 °F 39.7 °F 30.33 in ENE 2.1 mph 3.5 mph 92 % 0.00 in
09:15 41.9 °F 40.0 °F 30.33 in East 4.1 mph 5.8 mph 93 % 0.00 in
09:21 41.9 °F 40.0 °F 30.34 in Calm   3.0 mph 93 % 0.00 in
09:26 41.8 °F 39.9 °F 30.33 in East 3.0 mph 5.0 mph 93 % 0.00 in
09:31 41.7 °F 39.8 °F 30.34 in ENE 1.3 mph 5.8 mph 93 % 0.00 in
09:36 41.6 °F 39.4 °F 30.33 in ENE 1.0 mph 5.0 mph 92 % 0.00 in
09:41 41.6 °F 39.4 °F 30.35 in Calm   2.0 mph 92 % 0.00 in
09:46 41.6 °F 39.4 °F 30.35 in NE 3.0 mph 10.0 mph 92 % 0.00 in
09:51 41.5 °F 39.1 °F 30.34 in ENE 3.0 mph 8.0 mph 91 % 0.00 in
09:56 41.7 °F 39.2 °F 30.35 in ENE 2.0 mph 3.0 mph 91 % 0.00 in
10:01 41.7 °F 39.0 °F 30.36 in ENE 2.9 mph 4.0 mph 90 % 0.00 in
10:06 41.6 °F 38.9 °F 30.35 in ENE 3.0 mph 7.0 mph 90 % 0.00 in
10:11 41.7 °F 39.0 °F 30.36 in ENE 5.0 mph 7.0 mph 90 % 0.00 in
10:16 41.6 °F 38.9 °F 30.37 in ENE 3.0 mph 7.0 mph 90 % 0.00 in
10:21 41.5 °F 38.5 °F 30.38 in ENE 2.0 mph 4.0 mph 89 % 0.00 in
10:26 41.5 °F 38.5 °F 30.38 in ENE 3.0 mph 5.0 mph 89 % 0.00 in
10:31 41.4 °F 38.4 °F 30.38 in ENE 3.0 mph 5.0 mph 89 % 0.00 in
10:36 41.5 °F 38.5 °F 30.38 in ENE 2.7 mph 4.6 mph 89 % 0.00 in
10:41 41.5 °F 38.5 °F 30.38 in ENE 1.0 mph 5.0 mph 89 % 0.00 in
10:46 41.6 °F 38.9 °F 30.36 in ENE 5.0 mph 7.0 mph 90 % 0.00 in
10:51 41.9 °F 38.9 °F 30.36 in ENE 5.0 mph 8.0 mph 89 % 0.00 in
10:56 42.2 °F 39.2 °F 30.36 in ENE 5.0 mph 8.0 mph 89 % 0.00 in
11:01 42.5 °F 39.5 °F 30.36 in East 3.5 mph 6.9 mph 89 % 0.00 in
11:06 42.8 °F 39.5 °F 30.35 in East 4.6 mph 6.0 mph 88 % 0.00 in
11:11 42.9 °F 39.6 °F 30.34 in ENE 5.6 mph 6.9 mph 88 % 0.00 in
11:16 43.1 °F 39.8 °F 30.35 in East 4.4 mph 6.9 mph 88 % 0.00 in
11:21 43.1 °F 39.8 °F 30.35 in ENE 3.1 mph 5.0 mph 88 % 0.00 in
11:26 43.0 °F 39.7 °F 30.35 in ENE 3.3 mph 5.0 mph 88 % 0.00 in
11:31 42.8 °F 39.5 °F 30.35 in ENE 3.1 mph 4.0 mph 88 % 0.00 in
11:36 42.6 °F 39.3 °F 30.34 in East 3.5 mph 7.0 mph 88 % 0.00 in
11:41 42.5 °F 39.5 °F 30.34 in ENE 3.4 mph 6.9 mph 89 % 0.00 in
11:46 42.5 °F 39.5 °F 30.34 in ENE 3.0 mph 6.9 mph 89 % 0.00 in
11:51 42.5 °F 39.5 °F 30.33 in ENE 5.1 mph 5.8 mph 89 % 0.00 in
11:56 42.4 °F 39.1 °F 30.33 in NE 3.3 mph 6.9 mph 88 % 0.00 in
12:01 42.4 °F 38.8 °F 30.33 in ENE 2.5 mph 4.6 mph 87 % 0.00 in
12:07 42.4 °F 39.1 °F 30.33 in East 4.7 mph 7.0 mph 88 % 0.00 in
12:12 42.5 °F 39.2 °F 30.32 in ENE 3.7 mph 4.6 mph 88 % 0.00 in
12:17 42.5 °F 39.2 °F 30.32 in ENE 4.5 mph 6.9 mph 88 % 0.00 in
12:22 42.6 °F 39.3 °F 30.31 in East 4.6 mph 7.0 mph 88 % 0.00 in
12:27 42.6 °F 39.0 °F 30.31 in East 4.8 mph 7.0 mph 87 % 0.00 in
12:32 42.5 °F 38.3 °F 30.32 in ENE 3.6 mph 8.1 mph 85 % 0.00 in
12:37 42.4 °F 38.5 °F 30.32 in East 3.9 mph 5.8 mph 86 % 0.00 in
12:42 42.3 °F 38.4 °F 30.30 in ENE 3.8 mph 7.0 mph 86 % 0.00 in
12:47 42.3 °F 38.7 °F 30.30 in East 5.4 mph 7.0 mph 87 % 0.00 in
12:52 42.3 °F 38.7 °F 30.30 in East 6.1 mph 9.2 mph 87 % 0.00 in
12:57 42.2 °F 38.3 °F 30.29 in ENE 5.3 mph 8.1 mph 86 % 0.00 in
13:02 42.1 °F 38.2 °F 30.30 in East 4.5 mph 6.9 mph 86 % 0.00 in
13:07 42.0 °F 38.1 °F 30.29 in East 5.6 mph 9.2 mph 86 % 0.00 in
13:12 41.8 °F 38.2 °F 30.31 in ENE 3.4 mph 7.0 mph 87 % 0.00 in
13:17 41.6 °F 38.0 °F 30.30 in East 3.8 mph 5.0 mph 87 % 0.00 in
13:22 41.6 °F 38.3 °F 30.30 in ENE 4.1 mph 4.6 mph 88 % 0.00 in
13:27 41.5 °F 38.2 °F 30.30 in ENE 3.7 mph 9.2 mph 88 % 0.00 in
13:32 41.3 °F 38.3 °F 30.30 in NE 2.8 mph 3.5 mph 89 % 0.00 in
13:37 41.2 °F 38.2 °F 30.31 in NE 1.1 mph 3.5 mph 89 % 0.00 in
13:43 41.1 °F 38.1 °F 30.31 in NE 2.8 mph 4.6 mph 89 % 0.00 in
13:48 41.1 °F 38.4 °F 30.30 in NE 2.4 mph 4.6 mph 90 % 0.00 in
13:53 41.1 °F 38.4 °F 30.31 in NNE 2.4 mph 4.6 mph 90 % 0.00 in
13:58 41.1 °F 38.4 °F 30.31 in NNE 3.2 mph 5.8 mph 90 % 0.00 in
14:03 41.1 °F 38.4 °F 30.31 in NNE 1.9 mph 3.5 mph 90 % 0.00 in
14:08 41.1 °F 38.4 °F 30.31 in NNE 2.6 mph 4.0 mph 90 % 0.00 in
14:13 41.0 °F 38.3 °F 30.31 in NNE 2.7 mph 4.6 mph 90 % 0.00 in
14:18 41.1 °F 38.4 °F 30.31 in NE 2.1 mph 4.6 mph 90 % 0.00 in
14:23 41.0 °F 38.6 °F 30.30 in NE 3.7 mph 5.8 mph 91 % 0.00 in
14:28 41.0 °F 38.6 °F 30.31 in NNE 5.9 mph 8.1 mph 91 % 0.00 in
14:33 40.9 °F 38.2 °F 30.31 in NE 4.2 mph 6.9 mph 90 % 0.00 in
14:38 40.9 °F 38.2 °F 30.30 in ENE 2.9 mph 4.6 mph 90 % 0.00 in
14:43 40.7 °F 38.0 °F 30.31 in NNE 2.8 mph 9.2 mph 90 % 0.00 in
14:48 40.7 °F 38.0 °F 30.30 in ENE 6.0 mph 9.2 mph 90 % 0.00 in
14:53 40.6 °F 37.9 °F 30.31 in ENE 3.5 mph 6.9 mph 90 % 0.00 in
14:58 40.5 °F 37.8 °F 30.31 in ENE 4.0 mph 9.0 mph 90 % 0.00 in
15:03 40.4 °F 37.7 °F 30.32 in NNE 2.1 mph 3.5 mph 90 % 0.00 in
15:08 40.4 °F 37.7 °F 30.33 in NE 1.6 mph 3.5 mph 90 % 0.00 in
15:14 40.4 °F 38.0 °F 30.34 in North 1.5 mph 4.0 mph 91 % 0.00 in
15:19 40.4 °F 38.0 °F 30.33 in NE 1.9 mph 3.5 mph 91 % 0.00 in
15:24 40.3 °F 37.9 °F 30.33 in NE 1.6 mph 4.6 mph 91 % 0.00 in
15:29 40.1 °F 37.7 °F 30.33 in NE 2.4 mph 5.8 mph 91 % 0.00 in
15:34 40.0 °F 37.6 °F 30.33 in ENE 4.0 mph 7.0 mph 91 % 0.00 in
15:39 39.9 °F 37.2 °F 30.32 in NE 4.6 mph 8.1 mph 90 % 0.00 in
15:44 39.8 °F 37.1 °F 30.33 in NE 4.6 mph 8.1 mph 90 % 0.00 in
15:49 39.7 °F 37.0 °F 30.33 in NE 2.1 mph 6.9 mph 90 % 0.00 in
15:54 39.7 °F 37.0 °F 30.34 in NNE 3.0 mph 4.6 mph 90 % 0.00 in
15:59 39.7 °F 37.0 °F 30.36 in NNE 4.1 mph 9.2 mph 90 % 0.00 in
16:04 39.5 °F 36.8 °F 30.35 in NNE 5.6 mph 9.2 mph 90 % 0.00 in
16:09 39.3 °F 36.3 °F 30.34 in ENE 3.3 mph 4.6 mph 89 % 0.00 in
16:14 39.2 °F 35.9 °F 30.34 in NE 4.2 mph 5.0 mph 88 % 0.00 in
16:19 39.1 °F 36.1 °F 30.35 in NNE 6.7 mph 10.0 mph 89 % 0.00 in
16:25 38.9 °F 35.9 °F 30.35 in NNE 6.4 mph 11.5 mph 89 % 0.00 in
16:30 38.8 °F 36.1 °F 30.36 in NNE 7.1 mph 10.4 mph 90 % 0.00 in
16:35 38.6 °F 35.9 °F 30.36 in NNE 6.6 mph 11.5 mph 90 % 0.00 in
16:40 38.4 °F 36.0 °F 30.36 in NE 7.3 mph 11.5 mph 91 % 0.00 in
16:45 38.2 °F 35.8 °F 30.36 in NNE 5.2 mph 8.1 mph 91 % 0.00 in
16:50 38.1 °F 36.0 °F 30.37 in NNE 6.1 mph 10.4 mph 92 % 0.01 in
16:55 37.9 °F 35.8 °F 30.38 in NNE 6.9 mph 11.5 mph 92 % 0.01 in
17:00 37.8 °F 35.7 °F 30.38 in NNE 3.3 mph 4.6 mph 92 % 0.01 in
17:05 37.7 °F 35.6 °F 30.38 in NNE 4.0 mph 6.0 mph 92 % 0.01 in
17:10 37.7 °F 35.9 °F 30.38 in NE 3.7 mph 6.9 mph 93 % 0.01 in
17:15 37.7 °F 35.9 °F 30.39 in NNE 3.4 mph 6.9 mph 93 % 0.01 in
17:20 37.6 °F 35.8 °F 30.39 in NE 2.9 mph 6.9 mph 93 % 0.01 in
17:25 37.6 °F 35.8 °F 30.39 in ENE 3.6 mph 8.1 mph 93 % 0.01 in
17:30 37.5 °F 35.7 °F 30.39 in NE 2.5 mph 4.6 mph 93 % 0.01 in
17:35 37.5 °F 35.9 °F 30.40 in ENE 1.3 mph 3.5 mph 94 % 0.02 in
17:40 37.5 °F 35.9 °F 30.40 in NNE 2.1 mph 3.5 mph 94 % 0.02 in
17:45 37.5 °F 35.9 °F 30.41 in NNE 6.5 mph 8.0 mph 94 % 0.02 in
17:50 37.4 °F 35.8 °F 30.41 in NNE 6.5 mph 8.1 mph 94 % 0.01 in
17:56 37.4 °F 35.8 °F 30.41 in NNE 6.0 mph 9.0 mph 94 % 0.00 in
18:01 37.3 °F 35.7 °F 30.41 in NNE 7.4 mph 10.4 mph 94 % 0.01 in
18:06 37.3 °F 35.7 °F 30.41 in NNE 6.0 mph 12.0 mph 94 % 0.00 in
18:11 37.2 °F 35.6 °F 30.40 in NNE 7.0 mph 10.0 mph 94 % 0.00 in
18:16 37.1 °F 35.8 °F 30.40 in NNE 3.0 mph 12.0 mph 95 % 0.00 in
18:21 37.1 °F 35.5 °F 30.40 in NE 2.7 mph 8.1 mph 94 % 0.01 in
18:26 37.1 °F 35.5 °F 30.40 in NE 6.0 mph 10.0 mph 94 % 0.00 in
18:31 37.0 °F 35.4 °F 30.39 in NE 5.0 mph 10.0 mph 94 % 0.00 in
18:36 36.8 °F 35.2 °F 30.39 in NNE 4.3 mph 8.1 mph 94 % 0.00 in
18:41 36.7 °F 35.4 °F 30.39 in NE 3.7 mph 6.9 mph 95 % 0.00 in
18:46 36.5 °F 35.2 °F 30.39 in NE 5.0 mph 9.0 mph 95 % 0.00 in
18:51 36.4 °F 34.8 °F 30.39 in NE 5.0 mph 7.0 mph 94 % 0.00 in
18:56 36.3 °F 34.7 °F 30.39 in NE 3.0 mph 12.0 mph 94 % 0.00 in
19:01 36.3 °F 34.7 °F 30.39 in ENE 4.4 mph 5.0 mph 94 % 0.00 in
19:06 36.2 °F 34.6 °F 30.39 in NE 5.0 mph 10.0 mph 94 % 0.00 in
19:11 36.1 °F 34.5 °F 30.38 in NE 7.0 mph 10.0 mph 94 % 0.00 in
19:16 36.0 °F 34.4 °F 30.38 in ENE 7.0 mph 12.0 mph 94 % 0.00 in
19:21 35.9 °F 34.4 °F 30.38 in ENE 7.0 mph 9.0 mph 94 % 0.00 in
19:26 35.9 °F 34.3 °F 30.37 in ENE 5.0 mph 10.0 mph 94 % 0.00 in
19:31 35.9 °F 34.4 °F 30.37 in ENE 6.0 mph 10.0 mph 94 % 0.00 in
19:36 35.9 °F 34.3 °F 30.37 in ENE 7.0 mph 12.0 mph 94 % 0.00 in
19:41 35.8 °F 34.3 °F 30.38 in ENE 8.0 mph 12.0 mph 94 % 0.00 in
19:46 35.8 °F 34.2 °F 30.38 in ENE 5.0 mph 12.0 mph 94 % 0.00 in
19:51 35.8 °F 34.2 °F 30.38 in ENE 7.0 mph 10.0 mph 94 % 0.00 in
19:56 35.9 °F 34.3 °F 30.38 in East 4.7 mph 8.1 mph 94 % 0.00 in
20:01 35.9 °F 34.3 °F 30.38 in ENE 7.2 mph 9.2 mph 94 % 0.00 in
20:06 35.9 °F 34.3 °F 30.38 in ENE 6.5 mph 8.1 mph 94 % 0.00 in
20:11 35.9 °F 34.3 °F 30.38 in ENE 5.9 mph 9.2 mph 94 % 0.00 in
20:16 35.9 °F 34.3 °F 30.38 in East 7.8 mph 11.5 mph 94 % 0.00 in
20:21 35.9 °F 34.3 °F 30.38 in ENE 7.4 mph 10.4 mph 94 % 0.00 in
20:26 35.8 °F 34.2 °F 30.38 in ENE 5.3 mph 10.0 mph 94 % 0.00 in
20:31 35.8 °F 34.0 °F 30.38 in ENE 7.1 mph 8.1 mph 93 % 0.00 in
20:36 35.9 °F 34.1 °F 30.39 in ENE 6.4 mph 11.5 mph 93 % 0.00 in
20:41 35.9 °F 34.1 °F 30.39 in ENE 6.6 mph 9.0 mph 93 % 0.00 in
20:46 35.9 °F 34.1 °F 30.38 in NE 6.3 mph 11.5 mph 93 % 0.00 in
20:51 35.9 °F 34.1 °F 30.39 in NE 5.1 mph 8.1 mph 93 % 0.00 in
20:56 35.9 °F 34.1 °F 30.39 in ENE 7.2 mph 11.5 mph 93 % 0.00 in
21:01 35.9 °F 34.1 °F 30.39 in NNE 5.8 mph 9.2 mph 93 % 0.00 in
21:06 35.9 °F 34.1 °F 30.40 in ENE 2.5 mph 5.8 mph 93 % 0.00 in
21:11 36.0 °F 34.2 °F 30.40 in ENE 4.9 mph 8.1 mph 93 % 0.00 in
21:16 36.0 °F 34.2 °F 30.40 in ENE 5.7 mph 10.4 mph 93 % 0.00 in
21:21 36.0 °F 34.2 °F 30.40 in NE 3.7 mph 6.9 mph 93 % 0.00 in
21:26 36.0 °F 34.2 °F 30.40 in ENE 5.7 mph 7.0 mph 93 % 0.00 in
21:32 36.0 °F 34.2 °F 30.40 in ENE 4.9 mph 8.0 mph 93 % 0.00 in
21:37 36.0 °F 34.2 °F 30.39 in ENE 3.5 mph 8.1 mph 93 % 0.00 in
21:42 36.1 °F 34.3 °F 30.39 in ENE 4.4 mph 8.1 mph 93 % 0.00 in
21:47 36.2 °F 34.4 °F 30.39 in ENE 5.1 mph 9.2 mph 93 % 0.00 in
21:52 36.2 °F 34.4 °F 30.39 in ENE 5.7 mph 8.1 mph 93 % 0.00 in
21:57 36.2 °F 34.4 °F 30.40 in ENE 5.5 mph 10.4 mph 93 % 0.00 in
22:02 36.2 °F 34.4 °F 30.39 in ENE 4.6 mph 7.0 mph 93 % 0.00 in
22:07 36.2 °F 34.6 °F 30.40 in ENE 4.3 mph 8.1 mph 94 % 0.00 in
22:12 36.3 °F 34.5 °F 30.40 in East 5.2 mph 8.1 mph 93 % 0.00 in
22:17 36.3 °F 34.5 °F 30.39 in East 5.4 mph 10.4 mph 93 % 0.00 in
22:22 36.3 °F 34.5 °F 30.39 in ENE 5.0 mph 10.4 mph 93 % 0.00 in
22:27 36.3 °F 34.5 °F 30.40 in ENE 8.0 mph 10.4 mph 93 % 0.00 in
22:32 36.3 °F 34.5 °F 30.41 in NE 4.4 mph 8.1 mph 93 % 0.00 in
22:37 36.3 °F 34.5 °F 30.42 in ENE 5.1 mph 7.0 mph 93 % 0.00 in
22:42 36.3 °F 34.5 °F 30.42 in NE 3.7 mph 5.0 mph 93 % 0.00 in
22:47 36.4 °F 34.6 °F 30.43 in ENE 4.5 mph 10.4 mph 93 % 0.00 in
22:52 36.4 °F 34.6 °F 30.43 in NE 4.6 mph 9.0 mph 93 % 0.00 in
22:57 36.4 °F 34.6 °F 30.42 in ENE 4.4 mph 8.1 mph 93 % 0.00 in
23:03 36.4 °F 34.6 °F 30.42 in NE 4.8 mph 9.2 mph 93 % 0.00 in
23:08 36.4 °F 34.6 °F 30.41 in NE 4.2 mph 5.0 mph 93 % 0.00 in
23:13 36.4 °F 34.6 °F 30.42 in ENE 4.2 mph 10.4 mph 93 % 0.00 in
23:18 36.4 °F 34.6 °F 30.41 in NE 5.4 mph 11.5 mph 93 % 0.00 in
23:23 36.4 °F 34.6 °F 30.40 in ENE 6.8 mph 11.5 mph 93 % 0.00 in
23:28 36.3 °F 34.5 °F 30.40 in NE 6.5 mph 10.4 mph 93 % 0.00 in
23:33 36.3 °F 34.5 °F 30.41 in ENE 7.0 mph 10.4 mph 93 % 0.00 in
23:38 36.3 °F 34.5 °F 30.42 in ENE 4.4 mph 8.1 mph 93 % 0.00 in
23:43 36.3 °F 34.5 °F 30.41 in NE 4.9 mph 8.1 mph 93 % 0.00 in
23:48 36.2 °F 34.4 °F 30.41 in ENE 4.6 mph 8.1 mph 93 % 0.00 in
23:53 36.2 °F 34.4 °F 30.42 in ENE 5.5 mph 11.5 mph 93 % 0.00 in
23:58 36.2 °F 34.4 °F 30.41 in NE 3.2 mph 8.0 mph 93 % 0.00 in
Crab Meadow Weather
Compliments of Weather Underground - 3 mb

Script developed by  Jim McMurry - jmcmurry@mwt.net Adapted for the template by  Wim van der Kuil - Leuven-Template.eu

Pollen: Each year American vegetation spews forth some 1,000,000 tons of pollen into the air we breathe.